EW2145 Weather Reports


time (UTC)temp
F
wind
direction
speed
knots
gust
knots
rain 1hr
in
rain 24hr
in
rain mn
in
humidity
%
barometer
mb
20260504045036 52 211 5.2 8.7 0.00 0.00 0.00 51 1009.7
20260504044535 52 223 3.5 11.3 0.00 0.00 0.00 51 1009.8
20260504044036 52 221 5.2 12.2 0.00 0.00 0.00 50 1009.7
20260504043536 53 237 7.8 13.0 0.00 0.00 0.00 49 1009.8
20260504043035 53 198 7.8 13.0 0.00 0.00 0.00 49 1009.6
20260504042535 53 213 7.0 13.0 0.00 0.00 0.00 49 1009.5
20260504042035 53 216 6.1 13.0 0.00 0.00 0.00 49 1009.7
20260504041534 53 250 3.5 13.0 0.00 0.00 0.00 48 1009.5
20260504041303 53 195 7.0 12.2 0.00 0.00 0.00 49 1009.7
20260504040534 53 216 5.2 12.2 0.00 0.00 0.00 48 1009.7
20260504040034 53 203 7.0 12.2 0.00 0.00 0.00 48 1009.8
20260504035534 53 196 7.0 13.0 0.00 0.00 0.00 48 1009.7
20260504035034 53 224 2.6 15.6 0.00 0.00 0.00 48 1009.8
20260504034533 54 218 5.2 21.7 0.00 0.00 0.00 47 1009.5
20260504034033 54 215 8.7 21.7 0.00 0.00 0.00 47 1009.8
20260504033533 53 163 3.5 13.0 0.00 0.00 0.00 48 1009.7
20260504033033 54 202 3.5 13.9 0.00 0.00 0.00 48 1009.8
20260504032532 54 241 8.7 13.9 0.00 0.00 0.00 47 1009.6
20260504032032 54 227 9.6 16.5 0.00 0.00 0.00 47 1009.6
20260504031750 54 225 9.6 16.5 0.00 0.00 0.00 47 1009.6
20260504031031 54 220 7.8 14.8 0.00 0.00 0.00 47 1009.5
20260504030531 53 189 2.6 13.0 0.00 0.00 0.00 48 1009.6
20260504030032 53 213 7.0 13.0 0.00 0.00 0.00 48 1009.6
20260504025531 53 229 7.8 13.9 0.00 0.00 0.00 48 1009.5
20260504025031 53 186 7.0 13.9 0.00 0.00 0.00 49 1009.6
20260504024751 53 237 9.6 13.0 0.00 0.00 0.00 49 1009.6
20260504024030 53 200 3.5 16.5 0.00 0.00 0.00 50 1009.6
20260504023530 53 268 1.7 16.5 0.00 0.00 0.00 50 1009.8
20260504023030 53 224 12.2 16.5 0.00 0.00 0.00 50 1009.8
20260504022530 53 195 2.6 14.8 0.00 0.00 0.00 50 1009.9
20260504022029 53 216 6.1 13.9 0.00 0.00 0.00 50 1009.8
20260504021529 53 194 3.5 13.0 0.00 0.00 0.00 49 1009.9
20260504021247 53 212 1.7 13.0 0.00 0.00 0.00 49 1009.9
20260504020529 53 190 3.5 17.4 0.00 0.00 0.00 49 1009.9
20260504020029 53 191 5.2 17.4 0.00 0.00 0.00 49 1010.1
20260504015749 53 237 4.3 13.9 0.00 0.00 0.00 49 1009.9
20260504015028 53 229 5.2 12.2 0.00 0.00 0.00 49 1010.1
20260504014528 53 220 1.7 11.3 0.00 0.00 0.00 50 1010.2
20260504014250 53 207 8.7 15.6 0.00 0.00 0.00 50 1010.1
20260504013527 53 204 7.0 15.6 0.00 0.00 0.00 50 1010.1
20260504013027 53 224 4.3 15.6 0.00 0.00 0.00 50 1010.2
20260504012530 52 214 7.0 11.3 0.00 0.00 0.00 52 1010.4
20260504012027 52 216 5.2 11.3 0.00 0.00 0.00 53 1010.1
20260504011527 52 199 4.3 13.0 0.00 0.00 0.00 52 1010.3
20260504011026 52 200 4.3 13.0 0.00 0.00 0.00 52 1010.4
20260504010526 52 252 6.1 15.6 0.00 0.00 0.00 52 1010.1
20260504010026 52 207 5.2 15.6 0.00 0.00 0.00 52 1010.1
20260504005526 52 205 3.5 13.0 0.00 0.00 0.00 52 1010.2
20260504005249 52 186 4.3 13.0 0.00 0.00 0.00 53 1010.0
20260504004755 52 227 7.0 13.0 0.00 0.00 0.00 53 1010.2
20260504004255 52 180 1.7 13.0 0.00 0.00 0.00 53 1010.3
20260504003525 52 218 8.7 11.3 0.00 0.00 0.00 55 1010.2
20260504003257 52 216 4.3 12.2 0.00 0.00 0.00 54 1010.0
20260504002525 52 205 5.2 12.2 0.00 0.00 0.00 54 1010.1
20260504002246 52 242 4.3 13.0 0.00 0.00 0.00 57 1010.0
20260504001746 52 253 2.6 13.0 0.00 0.00 0.00 57 1010.1
20260504001024 52 202 3.5 11.3 0.00 0.00 0.00 57 1010.4
20260504000741 52 143 3.5 12.2 0.00 0.00 0.00 58 1010.2
20260504000024 52 206 4.3 12.2 0.00 0.00 0.00 58 1010.3
20260503235747 52 223 4.3 10.4 0.00 0.00 0.00 58 1010.5
20260503235023 52 301 0.9 11.3 0.00 0.00 0.00 58 1010.5
20260503234523 52 205 3.5 13.0 0.00 0.00 0.00 57 1010.7
20260503234023 52 271 5.2 13.0 0.00 0.00 0.00 56 1010.5
20260503233523 52 203 3.5 14.8 0.00 0.00 0.00 57 1010.4
20260503233022 52 336 5.2 14.8 0.00 0.00 0.00 55 1010.5
20260503232522 52 177 1.7 14.8 0.00 0.00 0.00 54 1010.4
20260503232022 52 214 2.6 8.7 0.00 0.00 0.00 54 1010.2
20260503231522 53 219 2.6 11.3 0.00 0.00 0.00 54 1010.2
20260503231021 53 264 4.3 12.2 0.00 0.00 0.00 53 1010.3
20260503230521 53 248 3.5 13.9 0.00 0.00 0.00 53 1010.2
20260503230021 52 51 5.2 14.8 0.00 0.00 0.00 53 1010.2
20260503225742 52 246 6.1 14.8 0.00 0.00 0.00 53 1010.2
20260503225021 53 249 12.2 16.5 0.00 0.00 0.00 53 1010.6
20260503224521 53 222 1.7 20.0 0.00 0.00 0.00 53 1010.2
20260503224022 53 217 4.3 20.0 0.00 0.00 0.00 52 1010.3
20260503223520 53 204 14.8 20.0 0.00 0.00 0.00 53 1010.4
20260503223020 53 228 5.2 18.2 0.00 0.00 0.00 52 1010.1
20260503222520 53 206 6.1 18.2 0.00 0.00 0.00 52 1010.2
20260503222020 53 223 5.2 16.5 0.00 0.00 0.00 52 1009.9
20260503221520 53 202 9.6 15.6 0.00 0.00 0.00 53 1010.2
20260503221020 53 198 6.1 19.1 0.00 0.00 0.00 52 1010.2
20260503221006 53 272 4.3 19.1 0.00 0.00 0.00 52 1010.1
20260503220019 53 215 4.3 25.2 0.00 0.00 0.00 52 1010.2
20260503215519 53 217 16.5 25.2 0.00 0.00 0.00 51 1010.1
20260503215018 53 294 3.5 18.2 0.00 0.00 0.00 52 1010.0
20260503214518 53 226 10.4 21.7 0.00 0.00 0.00 51 1009.9
20260503214237 53 261 4.3 21.7 0.00 0.00 0.00 50 1010.0
20260503213518 53 293 1.7 21.7 0.00 0.00 0.00 51 1010.1
20260503213018 53 213 9.6 20.9 0.00 0.00 0.00 50 1010.1
20260503212518 53 259 3.5 20.9 0.00 0.00 0.00 49 1009.9
20260503212017 53 223 9.6 19.1 0.00 0.00 0.00 49 1010.3
20260503211517 54 229 8.7 19.1 0.00 0.00 0.00 47 1010.1
20260503211017 54 231 7.0 16.5 0.00 0.00 0.00 47 1010.1
20260503210516 54 318 3.5 16.5 0.00 0.00 0.00 46 1010.0
20260503210016 55 222 10.4 14.8 0.00 0.00 0.00 46 1010.0
20260503205516 55 217 4.3 14.8 0.00 0.00 0.00 47 1010.1
20260503205016 55 249 7.8 16.5 0.00 0.00 0.00 46 1010.3
20260503204516 55 225 4.3 16.5 0.00 0.00 0.00 47 1010.4
20260503204458 55 224 5.2 15.6 0.00 0.00 0.00 46 1010.2
20260503203515 55 304 6.1 16.5 0.00 0.00 0.00 45 1010.2
20260503203015 55 261 1.7 16.5 0.00 0.00 0.00 45 1010.3
20260503202515 55 218 2.6 20.0 0.00 0.00 0.00 45 1010.1
20260503202014 55 209 9.6 20.0 0.00 0.00 0.00 45 1010.5
20260503201515 56 207 7.0 18.2 0.00 0.00 0.00 46 1010.5
20260503201015 55 222 4.3 18.2 0.00 0.00 0.00 45 1010.5
20260503200514 55 214 9.6 14.8 0.00 0.00 0.00 45 1010.7
20260503200014 55 225 5.2 19.1 0.00 0.00 0.00 44 1010.7
20260503195513 55 204 4.3 21.7 0.00 0.00 0.00 45 1010.9
20260503195013 55 204 8.7 21.7 0.00 0.00 0.00 43 1010.6
20260503194513 55 244 7.8 18.2 0.00 0.00 0.00 43 1011.0
20260503194014 56 263 9.6 13.9 0.00 0.00 0.00 42 1010.9
20260503193512 56 259 1.7 20.0 0.00 0.00 0.00 42 1010.7
20260503193013 56 240 5.2 20.0 0.00 0.00 0.00 41 1011.0
20260503192513 56 239 10.4 18.2 0.00 0.00 0.00 39 1011.1
20260503192012 56 207 7.8 15.6 0.00 0.00 0.00 39 1011.1
20260503191512 56 240 8.7 20.9 0.00 0.01 0.00 39 1011.2
20260503191012 55 245 5.2 20.9 0.00 0.01 0.00 40 1011.4
20260503190512 55 227 14.8 20.9 0.00 0.01 0.00 39 1011.5
20260503190012 54 226 7.8 20.9 0.00 0.01 0.00 39 1011.5
20260503185511 55 204 5.2 19.1 0.00 0.01 0.00 39 1011.5
20260503185011 56 211 18.2 20.9 0.00 0.01 0.00 39 1011.6
20260503184511 55 308 5.2 21.7 0.00 0.01 0.00 41 1011.6
20260503184231 54 234 7.8 21.7 0.00 0.01 0.00 38 1011.6
20260503183511 54 210 8.7 21.7 0.00 0.01 0.00 38 1011.9
20260503183010 53 205 9.6 19.1 0.00 0.01 0.00 37 1011.9
20260503182510 54 236 8.7 19.1 0.00 0.01 0.00 38 1012.1
20260503182235 53 202 11.3 19.1 0.00 0.01 0.00 37 1011.9
20260503181509 54 198 9.6 17.4 0.00 0.01 0.00 37 1012.2
20260503181231 53 215 3.5 17.4 0.00 0.01 0.00 39 1012.3
20260503180510 53 238 5.2 17.4 0.00 0.01 0.00 39 1012.1
20260503180009 53 192 6.1 14.8 0.00 0.01 0.00 40 1012.5
20260503175509 53 226 8.7 14.8 0.00 0.01 0.00 41 1012.5
20260503175008 53 210 4.3 15.6 0.00 0.01 0.00 42 1012.5
20260503174508 52 218 6.1 15.6 0.00 0.01 0.00 42 1012.9
20260503174230 52 206 9.6 21.7 0.00 0.01 0.00 41 1012.8
20260503173508 51 211 8.7 21.7 0.00 0.01 0.00 41 1012.6
20260503173008 51 201 5.2 16.5 0.00 0.01 0.00 41 1012.9
20260503172509 53 196 5.2 16.5 0.00 0.01 0.00 39 1013.0
20260503172007 53 191 7.8 13.9 0.00 0.01 0.00 42 1012.9
20260503171507 53 296 7.0 11.3 0.00 0.01 0.00 42 1012.8
20260503171228 53 292 2.6 13.9 0.00 0.01 0.00 41 1013.0
20260503170507 53 248 7.0 13.9 0.00 0.01 0.00 39 1013.0
20260503151002 50 207 4.3 10.4 0.00 0.01 0.00 57 1013.9
20260503150502 50 263 5.2 12.2 0.00 0.01 0.00 58 1013.8
20260503150447 49 205 6.1 18.2 0.00 0.01 0.00 60 1013.8
20260503130957 44 191 7.0 12.2 0.00 0.01 0.00 69 1014.6
20260503130457 44 193 4.3 8.7 0.00 0.01 0.00 70 1014.7
20260503110713 35 191 1.7 4.3 0.00 0.01 0.00 81 1014.4
20260503100154 33 211 1.7 3.5 0.00 0.01 0.00 89 1014.3
20260503090447 34 359 0.0 4.3 0.00 0.01 0.00 89 1014.5
20260503081445 34 208 1.7 2.6 0.00 0.01 0.00 93 1014.4
20260503081201 34 187 0.0 4.3 0.00 0.01 0.00 91 1014.7
20260503080710 34 286 0.0 4.3 0.00 0.01 0.00 90 1014.4
20260503072943 35 182 3.5 4.3 0.00 0.01 0.00 89 1014.5
20260503072703 35 213 4.3 5.2 0.00 0.01 0.00 89 1014.5
20260503071943 35 196 4.3 5.2 0.00 0.01 0.00 89 1014.4
20260503071442 35 209 3.5 5.2 0.00 0.01 0.00 91 1014.4
20260503071207 35 191 3.5 6.1 0.00 0.01 0.00 89 1014.5
20260503070442 36 192 3.5 6.1 0.00 0.01 0.00 87 1014.5
20260503054939 37 187 3.5 7.0 0.00 0.01 0.00 83 1014.9
20260503054439 37 176 2.6 5.2 0.00 0.01 0.00 83 1014.9
20260503054159 37 195 4.3 5.2 0.00 0.01 0.00 82 1014.8
20260503053438 37 207 2.6 5.2 0.00 0.01 0.00 83 1014.9
20260503052938 37 210 2.6 6.1 0.00 0.01 0.00 83 1015.0
20260503052438 37 194 1.7 6.1 0.00 0.01 0.00 81 1014.9
20260503051938 38 210 2.6 5.2 0.00 0.01 0.00 79 1015.0
20260503051438 38 206 2.6 5.2 0.00 0.01 0.00 79 1014.9
20260503050937 38 188 1.7 5.2 0.00 0.01 0.00 78 1015.3
20260503050437 38 195 3.5 6.1 0.00 0.01 0.00 78 1015.2
20260503045937 38 213 3.5 6.1 0.00 0.01 0.00 78 1015.1
20260503045918 39 213 0.9 7.8 0.00 0.01 0.00 78 1015.2